owner,sensor,date,latitude,longitude,air_temperature,qcFlag 
DISL,ioos:station:DISL:CATA:1,2011-05-01T00:00:00Z,30.3085,-88.1395,24.31,1111122 
DISL,ioos:station:DISL:CATA:1,2011-05-01T00:30:00Z,30.3085,-88.1395,23.83,1111122 
DISL,ioos:station:DISL:CATA:1,2011-05-01T01:00:00Z,30.3085,-88.1395,23.77,1111122 
DISL,ioos:station:DISL:CATA:1,2011-05-01T01:30:00Z,30.3085,-88.1395,23.67,1111122 
DISL,ioos:station:DISL:CATA:1,2011-05-01T02:00:00Z,30.3085,-88.1395,23.88,1111122 
DISL,ioos:station:DISL:CATA:1,2011-05-01T02:30:00Z,30.3085,-88.1395,23.74,1111122 
DISL,ioos:station:DISL:CATA:1,2011-05-01T03:00:00Z,30.3085,-88.1395,23.64,1111122 
DISL,ioos:station:DISL:CATA:1,2011-05-01T03:30:00Z,30.3085,-88.1395,23.64,1111122 
DISL,ioos:station:DISL:CATA:1,2011-05-01T04:00:00Z,30.3085,-88.1395,23.64,1111122 
DISL,ioos:station:DISL:CATA:1,2011-05-01T04:30:00Z,30.3085,-88.1395,23.5,1111122 
DISL,ioos:station:DISL:CATA:1,2011-05-01T05:00:00Z,30.3085,-88.1395,23.43,1111122 
DISL,ioos:station:DISL:CATA:1,2011-05-01T05:30:00Z,30.3085,-88.1395,23.26,1111122 
DISL,ioos:station:DISL:CATA:1,2011-05-01T06:00:00Z,30.3085,-88.1395,23.1,1111122 
DISL,ioos:station:DISL:CATA:1,2011-05-01T06:30:00Z,30.3085,-88.1395,23.2,1111122 
DISL,ioos:station:DISL:CATA:1,2011-05-01T07:00:00Z,30.3085,-88.1395,23.17,1111122 
DISL,ioos:station:DISL:CATA:1,2011-05-01T07:30:00Z,30.3085,-88.1395,22.96,1111122 
DISL,ioos:station:DISL:CATA:1,2011-05-01T08:00:00Z,30.3085,-88.1395,22.96,1111122 
DISL,ioos:station:DISL:CATA:1,2011-05-01T08:30:00Z,30.3085,-88.1395,22.89,1111122 
DISL,ioos:station:DISL:CATA:1,2011-05-01T09:00:00Z,30.3085,-88.1395,22.93,1111122 
DISL,ioos:station:DISL:CATA:1,2011-05-01T09:30:00Z,30.3085,-88.1395,22.79,1111122 
DISL,ioos:station:DISL:CATA:1,2011-05-01T10:00:00Z,30.3085,-88.1395,22.72,1111122 
DISL,ioos:station:DISL:CATA:1,2011-05-01T10:30:00Z,30.3085,-88.1395,22.89,1111122 
DISL,ioos:station:DISL:CATA:1,2011-05-01T11:00:00Z,30.3085,-88.1395,22.89,1111122 
DISL,ioos:station:DISL:CATA:1,2011-05-01T11:30:00Z,30.3085,-88.1395,23.03,1111122 
DISL,ioos:station:DISL:CATA:1,2011-05-01T12:00:00Z,30.3085,-88.1395,23.58,1111122 
DISL,ioos:station:DISL:CATA:1,2011-05-01T12:30:00Z,30.3085,-88.1395,23.82,1111122 
DISL,ioos:station:DISL:CATA:1,2011-05-01T13:00:00Z,30.3085,-88.1395,23.95,1111122 
DISL,ioos:station:DISL:CATA:1,2011-05-01T13:30:00Z,30.3085,-88.1395,24.28,1111122 
DISL,ioos:station:DISL:CATA:1,2011-05-01T14:00:00Z,30.3085,-88.1395,24.52,1111122 
DISL,ioos:station:DISL:CATA:1,2011-05-01T14:30:00Z,30.3085,-88.1395,24.76,1111122 
DISL,ioos:station:DISL:CATA:1,2011-05-01T15:00:00Z,30.3085,-88.1395,24.93,1111122 
DISL,ioos:station:DISL:CATA:1,2011-05-01T15:30:00Z,30.3085,-88.1395,25.09,1111122 
DISL,ioos:station:DISL:CATA:1,2011-05-01T16:00:00Z,30.3085,-88.1395,25.32,1111122 
DISL,ioos:station:DISL:CATA:1,2011-05-01T16:30:00Z,30.3085,-88.1395,24.84,1111122 
DISL,ioos:station:DISL:CATA:1,2011-05-01T17:00:00Z,30.3085,-88.1395,24.77,1111122 
DISL,ioos:station:DISL:CATA:1,2011-05-01T17:30:00Z,30.3085,-88.1395,24.67,1111122 
DISL,ioos:station:DISL:CATA:1,2011-05-01T18:00:00Z,30.3085,-88.1395,24.87,1111122 
DISL,ioos:station:DISL:CATA:1,2011-05-01T18:30:00Z,30.3085,-88.1395,24.84,1111122 
DISL,ioos:station:DISL:CATA:1,2011-05-01T19:00:00Z,30.3085,-88.1395,25.04,1111122 
DISL,ioos:station:DISL:CATA:1,2011-05-01T19:30:00Z,30.3085,-88.1395,25.11,1111122 
DISL,ioos:station:DISL:CATA:1,2011-05-01T20:00:00Z,30.3085,-88.1395,25.28,1111122 
DISL,ioos:station:DISL:CATA:1,2011-05-01T20:30:00Z,30.3085,-88.1395,25.52,1111122 
DISL,ioos:station:DISL:CATA:1,2011-05-01T21:00:00Z,30.3085,-88.1395,25.22,1111122 
DISL,ioos:station:DISL:CATA:1,2011-05-01T21:30:00Z,30.3085,-88.1395,24.98,1111122 
DISL,ioos:station:DISL:CATA:1,2011-05-01T22:00:00Z,30.3085,-88.1395,25.19,1111122 
DISL,ioos:station:DISL:CATA:1,2011-05-01T22:30:00Z,30.3085,-88.1395,24.62,1111122 
DISL,ioos:station:DISL:CATA:1,2011-05-01T23:00:00Z,30.3085,-88.1395,24.42,1111122 
DISL,ioos:station:DISL:CATA:1,2011-05-01T23:30:00Z,30.3085,-88.1395,24.38,1111122 
DISL,ioos:station:DISL:CATA:1,2011-05-02T00:00:00Z,30.3085,-88.1395,24.18,1111122 
DISL,ioos:station:DISL:CATA:1,2011-05-02T00:30:00Z,30.3085,-88.1395,24.18,1111122 
DISL,ioos:station:DISL:CATA:1,2011-05-02T01:00:00Z,30.3085,-88.1395,24.11,1111122 
DISL,ioos:station:DISL:CATA:1,2011-05-02T01:30:00Z,30.3085,-88.1395,24.07,1111122 
DISL,ioos:station:DISL:CATA:1,2011-05-02T02:00:00Z,30.3085,-88.1395,24.04,1111122 
DISL,ioos:station:DISL:CATA:1,2011-05-02T02:30:00Z,30.3085,-88.1395,23.97,1111122 
DISL,ioos:station:DISL:CATA:1,2011-05-02T03:00:00Z,30.3085,-88.1395,23.9,1111122 
DISL,ioos:station:DISL:CATA:1,2011-05-02T03:30:00Z,30.3085,-88.1395,23.83,1111122 
DISL,ioos:station:DISL:CATA:1,2011-05-02T04:00:00Z,30.3085,-88.1395,24.04,1111122 
DISL,ioos:station:DISL:CATA:1,2011-05-02T04:30:00Z,30.3085,-88.1395,24.04,1111122 
DISL,ioos:station:DISL:CATA:1,2011-05-02T05:00:00Z,30.3085,-88.1395,23.9,1111122 
DISL,ioos:station:DISL:CATA:1,2011-05-02T05:30:00Z,30.3085,-88.1395,23.97,1111122 
DISL,ioos:station:DISL:CATA:1,2011-05-02T06:00:00Z,30.3085,-88.1395,23.9,1111122 
DISL,ioos:station:DISL:CATA:1,2011-05-02T06:30:00Z,30.3085,-88.1395,23.87,1111122 
DISL,ioos:station:DISL:CATA:1,2011-05-02T07:00:00Z,30.3085,-88.1395,23.77,1111122 
DISL,ioos:station:DISL:CATA:1,2011-05-02T07:30:00Z,30.3085,-88.1395,23.88,1111122 
DISL,ioos:station:DISL:CATA:1,2011-05-02T08:00:00Z,30.3085,-88.1395,23.64,1111122 
DISL,ioos:station:DISL:CATA:1,2011-05-02T08:30:00Z,30.3085,-88.1395,23.74,1111122 
DISL,ioos:station:DISL:CATA:1,2011-05-02T09:00:00Z,30.3085,-88.1395,23.77,1111122 
DISL,ioos:station:DISL:CATA:1,2011-05-02T09:30:00Z,30.3085,-88.1395,23.81,1111122 
DISL,ioos:station:DISL:CATA:1,2011-05-02T10:00:00Z,30.3085,-88.1395,23.77,1111122 
DISL,ioos:station:DISL:CATA:1,2011-05-02T10:30:00Z,30.3085,-88.1395,23.64,1111122 
DISL,ioos:station:DISL:CATA:1,2011-05-02T11:00:00Z,30.3085,-88.1395,23.67,1111122 
DISL,ioos:station:DISL:CATA:1,2011-05-02T11:30:00Z,30.3085,-88.1395,23.67,1111122 
DISL,ioos:station:DISL:CATA:1,2011-05-02T12:00:00Z,30.3085,-88.1395,23.74,1111122 
DISL,ioos:station:DISL:CATA:1,2011-05-02T12:30:00Z,30.3085,-88.1395,24.08,1111122 
DISL,ioos:station:DISL:CATA:1,2011-05-02T13:00:00Z,30.3085,-88.1395,24.94,1111122 
DISL,ioos:station:DISL:CATA:1,2011-05-02T13:30:00Z,30.3085,-88.1395,25.41,1111122 
DISL,ioos:station:DISL:CATA:1,2011-05-02T14:00:00Z,30.3085,-88.1395,24.86,1111122 
DISL,ioos:station:DISL:CATA:1,2011-05-02T14:30:00Z,30.3085,-88.1395,24.82,1111122 
DISL,ioos:station:DISL:CATA:1,2011-05-02T15:00:00Z,30.3085,-88.1395,24.67,1111122 
DISL,ioos:station:DISL:CATA:1,2011-05-02T15:30:00Z,30.3085,-88.1395,24.8,1111122 
DISL,ioos:station:DISL:CATA:1,2011-05-02T16:00:00Z,30.3085,-88.1395,24.87,1111122 
DISL,ioos:station:DISL:CATA:1,2011-05-02T16:30:00Z,30.3085,-88.1395,24.8,1111122 
DISL,ioos:station:DISL:CATA:1,2011-05-02T17:00:00Z,30.3085,-88.1395,24.87,1111122 
DISL,ioos:station:DISL:CATA:1,2011-05-02T17:30:00Z,30.3085,-88.1395,24.91,1111122 
DISL,ioos:station:DISL:CATA:1,2011-05-02T18:00:00Z,30.3085,-88.1395,25.39,1111122 
DISL,ioos:station:DISL:CATA:1,2011-05-02T18:30:00Z,30.3085,-88.1395,25.46,1111122 
DISL,ioos:station:DISL:CATA:1,2011-05-02T19:00:00Z,30.3085,-88.1395,25.56,1111122 
DISL,ioos:station:DISL:CATA:1,2011-05-02T19:30:00Z,30.3085,-88.1395,25.63,1111122 
DISL,ioos:station:DISL:CATA:1,2011-05-02T20:00:00Z,30.3085,-88.1395,25.7,1111122 
DISL,ioos:station:DISL:CATA:1,2011-05-02T20:30:00Z,30.3085,-88.1395,25.56,1111122 
DISL,ioos:station:DISL:CATA:1,2011-05-02T21:00:00Z,30.3085,-88.1395,25.29,1111122 
DISL,ioos:station:DISL:CATA:1,2011-05-02T21:30:00Z,30.3085,-88.1395,25.29,1111122 
DISL,ioos:station:DISL:CATA:1,2011-05-02T22:00:00Z,30.3085,-88.1395,25.47,1111122 
DISL,ioos:station:DISL:CATA:1,2011-05-02T22:30:00Z,30.3085,-88.1395,25.54,1111122 
DISL,ioos:station:DISL:CATA:1,2011-05-02T23:00:00Z,30.3085,-88.1395,25.68,1111122 
DISL,ioos:station:DISL:CATA:1,2011-05-02T23:30:00Z,30.3085,-88.1395,25.31,1111122 
DISL,ioos:station:DISL:CATA:1,2011-05-03T00:00:00Z,30.3085,-88.1395,24.69,1111122 
DISL,ioos:station:DISL:CATA:1,2011-05-03T00:30:00Z,30.3085,-88.1395,24.52,1111122 
DISL,ioos:station:DISL:CATA:1,2011-05-03T01:00:00Z,30.3085,-88.1395,24.59,1111122 
DISL,ioos:station:DISL:CATA:1,2011-05-03T01:30:00Z,30.3085,-88.1395,24.59,1111122 
DISL,ioos:station:DISL:CATA:1,2011-05-03T02:00:00Z,30.3085,-88.1395,24.48,1111122 
DISL,ioos:station:DISL:CATA:1,2011-05-03T02:30:00Z,30.3085,-88.1395,24.48,1111122 
DISL,ioos:station:DISL:CATA:1,2011-05-03T03:00:00Z,30.3085,-88.1395,24.38,1111122 
DISL,ioos:station:DISL:CATA:1,2011-05-03T03:30:00Z,30.3085,-88.1395,24.31,1111122 
DISL,ioos:station:DISL:CATA:1,2011-05-03T04:00:00Z,30.3085,-88.1395,24.35,1111122 
DISL,ioos:station:DISL:CATA:1,2011-05-03T04:30:00Z,30.3085,-88.1395,24.35,1111122 
DISL,ioos:station:DISL:CATA:1,2011-05-03T05:00:00Z,30.3085,-88.1395,24.28,1111122 
DISL,ioos:station:DISL:CATA:1,2011-05-03T05:30:00Z,30.3085,-88.1395,24.42,1111122 
DISL,ioos:station:DISL:CATA:1,2011-05-03T06:00:00Z,30.3085,-88.1395,24.45,1111122 
DISL,ioos:station:DISL:CATA:1,2011-05-03T06:30:00Z,30.3085,-88.1395,24.28,1111122 
DISL,ioos:station:DISL:CATA:1,2011-05-03T07:00:00Z,30.3085,-88.1395,24.42,1111122 
DISL,ioos:station:DISL:CATA:1,2011-05-03T07:30:00Z,30.3085,-88.1395,24.28,1111122 
DISL,ioos:station:DISL:CATA:1,2011-05-03T08:00:00Z,30.3085,-88.1395,24.45,1111122 
DISL,ioos:station:DISL:CATA:1,2011-05-03T08:30:00Z,30.3085,-88.1395,24.31,1111122 
DISL,ioos:station:DISL:CATA:1,2011-05-03T09:00:00Z,30.3085,-88.1395,24.42,1111122 
DISL,ioos:station:DISL:CATA:1,2011-05-03T09:30:00Z,30.3085,-88.1395,24.31,1111122 
DISL,ioos:station:DISL:CATA:1,2011-05-03T10:00:00Z,30.3085,-88.1395,24.45,1111122 
DISL,ioos:station:DISL:CATA:1,2011-05-03T10:30:00Z,30.3085,-88.1395,24.31,1111122 
DISL,ioos:station:DISL:CATA:1,2011-05-03T11:00:00Z,30.3085,-88.1395,24.35,1111122 
DISL,ioos:station:DISL:CATA:1,2011-05-03T11:30:00Z,30.3085,-88.1395,24.42,1111122 
DISL,ioos:station:DISL:CATA:1,2011-05-03T12:00:00Z,30.3085,-88.1395,24.62,1111122 
DISL,ioos:station:DISL:CATA:1,2011-05-03T12:30:00Z,30.3085,-88.1395,24.9,1111122 
DISL,ioos:station:DISL:CATA:1,2011-05-03T13:00:00Z,30.3085,-88.1395,24.93,1111122 
DISL,ioos:station:DISL:CATA:1,2011-05-03T13:30:00Z,30.3085,-88.1395,25.07,1111122 
DISL,ioos:station:DISL:CATA:1,2011-05-03T14:00:00Z,30.3085,-88.1395,24.86,1111122 
DISL,ioos:station:DISL:CATA:1,2011-05-03T14:30:00Z,30.3085,-88.1395,24.85,1111122 
DISL,ioos:station:DISL:CATA:1,2011-05-03T15:00:00Z,30.3085,-88.1395,25.03,1111122 
DISL,ioos:station:DISL:CATA:1,2011-05-03T15:30:00Z,30.3085,-88.1395,24.93,1111122 
DISL,ioos:station:DISL:CATA:1,2011-05-03T16:00:00Z,30.3085,-88.1395,25.07,1111122 
DISL,ioos:station:DISL:CATA:1,2011-05-03T16:30:00Z,30.3085,-88.1395,25.17,1111122 
DISL,ioos:station:DISL:CATA:1,2011-05-03T17:00:00Z,30.3085,-88.1395,25.12,1111122 
DISL,ioos:station:DISL:CATA:1,2011-05-03T17:30:00Z,30.3085,-88.1395,25.32,1111122 
DISL,ioos:station:DISL:CATA:1,2011-05-03T18:00:00Z,30.3085,-88.1395,25.35,1111122 
DISL,ioos:station:DISL:CATA:1,2011-05-03T18:30:00Z,30.3085,-88.1395,24.56,1111122 
DISL,ioos:station:DISL:CATA:1,2011-05-03T19:00:00Z,30.3085,-88.1395,21.16,1111122 
DISL,ioos:station:DISL:CATA:1,2011-05-03T19:30:00Z,30.3085,-88.1395,21.58,1111122 
DISL,ioos:station:DISL:CATA:1,2011-05-03T20:00:00Z,30.3085,-88.1395,21.14,1111122 
DISL,ioos:station:DISL:CATA:1,2011-05-03T20:30:00Z,30.3085,-88.1395,20.39,1111122 
DISL,ioos:station:DISL:CATA:1,2011-05-03T21:00:00Z,30.3085,-88.1395,19.33,1111122 
DISL,ioos:station:DISL:CATA:1,2011-05-03T21:30:00Z,30.3085,-88.1395,18.44,1111122 
DISL,ioos:station:DISL:CATA:1,2011-05-03T22:00:00Z,30.3085,-88.1395,18.73,1111122 
DISL,ioos:station:DISL:CATA:1,2011-05-03T22:30:00Z,30.3085,-88.1395,17.8,1111122 
DISL,ioos:station:DISL:CATA:1,2011-05-03T23:00:00Z,30.3085,-88.1395,17.8,1111122 
DISL,ioos:station:DISL:CATA:1,2011-05-03T23:30:00Z,30.3085,-88.1395,17.43,1111122 
DISL,ioos:station:DISL:CATA:1,2011-05-04T00:00:00Z,30.3085,-88.1395,16.74,1111122 
DISL,ioos:station:DISL:CATA:1,2011-05-04T00:30:00Z,30.3085,-88.1395,15.72,1111122 
DISL,ioos:station:DISL:CATA:1,2011-05-04T01:00:00Z,30.3085,-88.1395,14.8,1111122 
DISL,ioos:station:DISL:CATA:1,2011-05-04T01:30:00Z,30.3085,-88.1395,14.5,1111122 
DISL,ioos:station:DISL:CATA:1,2011-05-04T02:00:00Z,30.3085,-88.1395,14.15,1111122 
DISL,ioos:station:DISL:CATA:1,2011-05-04T02:30:00Z,30.3085,-88.1395,13.71,1111122 
DISL,ioos:station:DISL:CATA:1,2011-05-04T03:00:00Z,30.3085,-88.1395,13.23,1111122 
DISL,ioos:station:DISL:CATA:1,2011-05-04T03:30:00Z,30.3085,-88.1395,13.23,1111122 
DISL,ioos:station:DISL:CATA:1,2011-05-04T04:00:00Z,30.3085,-88.1395,13.44,1111122 
DISL,ioos:station:DISL:CATA:1,2011-05-04T04:30:00Z,30.3085,-88.1395,13.31,1111122 
DISL,ioos:station:DISL:CATA:1,2011-05-04T05:00:00Z,30.3085,-88.1395,13.44,1111122 
DISL,ioos:station:DISL:CATA:1,2011-05-04T05:30:00Z,30.3085,-88.1395,14.74,1111122 
DISL,ioos:station:DISL:CATA:1,2011-05-04T06:00:00Z,30.3085,-88.1395,14.81,1111122 
DISL,ioos:station:DISL:CATA:1,2011-05-04T06:30:00Z,30.3085,-88.1395,15.35,1111122 
DISL,ioos:station:DISL:CATA:1,2011-05-04T07:00:00Z,30.3085,-88.1395,15.01,1111122 
DISL,ioos:station:DISL:CATA:1,2011-05-04T07:30:00Z,30.3085,-88.1395,14.77,1111122 
DISL,ioos:station:DISL:CATA:1,2011-05-04T08:00:00Z,30.3085,-88.1395,14.5,1111122 
DISL,ioos:station:DISL:CATA:1,2011-05-04T08:30:00Z,30.3085,-88.1395,14.32,1111122 
DISL,ioos:station:DISL:CATA:1,2011-05-04T09:00:00Z,30.3085,-88.1395,13.88,1111122 
DISL,ioos:station:DISL:CATA:1,2011-05-04T09:30:00Z,30.3085,-88.1395,13.88,1111122 
DISL,ioos:station:DISL:CATA:1,2011-05-04T10:00:00Z,30.3085,-88.1395,13.07,1111122 
DISL,ioos:station:DISL:CATA:1,2011-05-04T10:30:00Z,30.3085,-88.1395,13.14,1111122 
DISL,ioos:station:DISL:CATA:1,2011-05-04T11:00:00Z,30.3085,-88.1395,12.49,1111122 
DISL,ioos:station:DISL:CATA:1,2011-05-04T11:30:00Z,30.3085,-88.1395,12.87,1111122 
DISL,ioos:station:DISL:CATA:1,2011-05-04T12:00:00Z,30.3085,-88.1395,13.21,1111122 
DISL,ioos:station:DISL:CATA:1,2011-05-04T12:30:00Z,30.3085,-88.1395,13.41,1111122 
DISL,ioos:station:DISL:CATA:1,2011-05-04T13:00:00Z,30.3085,-88.1395,14.39,1111122 
DISL,ioos:station:DISL:CATA:1,2011-05-04T13:30:00Z,30.3085,-88.1395,14.74,1111122 
DISL,ioos:station:DISL:CATA:1,2011-05-04T14:00:00Z,30.3085,-88.1395,14.7,1111122 
DISL,ioos:station:DISL:CATA:1,2011-05-04T14:30:00Z,30.3085,-88.1395,14.98,1111122 
DISL,ioos:station:DISL:CATA:1,2011-05-04T15:00:00Z,30.3085,-88.1395,15.79,1111122 
DISL,ioos:station:DISL:CATA:1,2011-05-04T15:30:00Z,30.3085,-88.1395,16.72,1111122 
DISL,ioos:station:DISL:CATA:1,2011-05-04T16:00:00Z,30.3085,-88.1395,17.63,1111122 
DISL,ioos:station:DISL:CATA:1,2011-05-04T16:30:00Z,30.3085,-88.1395,17.94,1111122 
DISL,ioos:station:DISL:CATA:1,2011-05-04T17:00:00Z,30.3085,-88.1395,18.22,1111122 
DISL,ioos:station:DISL:CATA:1,2011-05-04T17:30:00Z,30.3085,-88.1395,18.72,1111122 
DISL,ioos:station:DISL:CATA:1,2011-05-04T18:00:00Z,30.3085,-88.1395,19.09,1111122 
DISL,ioos:station:DISL:CATA:1,2011-05-04T18:30:00Z,30.3085,-88.1395,19.16,1111122 
DISL,ioos:station:DISL:CATA:1,2011-05-04T19:00:00Z,30.3085,-88.1395,19.88,1111122 
DISL,ioos:station:DISL:CATA:1,2011-05-04T19:30:00Z,30.3085,-88.1395,20.22,1111122 
DISL,ioos:station:DISL:CATA:1,2011-05-04T20:00:00Z,30.3085,-88.1395,20.22,1111122 
DISL,ioos:station:DISL:CATA:1,2011-05-04T20:30:00Z,30.3085,-88.1395,20.67,1111122 
DISL,ioos:station:DISL:CATA:1,2011-05-04T21:00:00Z,30.3085,-88.1395,20.87,1111122 
DISL,ioos:station:DISL:CATA:1,2011-05-04T21:30:00Z,30.3085,-88.1395,21.18,1111122 
DISL,ioos:station:DISL:CATA:1,2011-05-04T22:00:00Z,30.3085,-88.1395,21.42,1111122 
DISL,ioos:station:DISL:CATA:1,2011-05-04T22:30:00Z,30.3085,-88.1395,21.86,1111122 
DISL,ioos:station:DISL:CATA:1,2011-05-04T23:00:00Z,30.3085,-88.1395,21.66,1111122 
DISL,ioos:station:DISL:CATA:1,2011-05-04T23:30:00Z,30.3085,-88.1395,21.49,1111122 
DISL,ioos:station:DISL:CATA:1,2011-05-05T00:00:00Z,30.3085,-88.1395,21.08,1111122 
DISL,ioos:station:DISL:CATA:1,2011-05-05T00:30:00Z,30.3085,-88.1395,20.01,1111122 
DISL,ioos:station:DISL:CATA:1,2011-05-05T01:00:00Z,30.3085,-88.1395,19.31,1111122 
DISL,ioos:station:DISL:CATA:1,2011-05-05T01:30:00Z,30.3085,-88.1395,18.8,1111122 
DISL,ioos:station:DISL:CATA:1,2011-05-05T02:00:00Z,30.3085,-88.1395,18.59,1111122 
DISL,ioos:station:DISL:CATA:1,2011-05-05T02:30:00Z,30.3085,-88.1395,20.42,1111122 
DISL,ioos:station:DISL:CATA:1,2011-05-05T03:00:00Z,30.3085,-88.1395,19.69,1111122 
DISL,ioos:station:DISL:CATA:1,2011-05-05T03:30:00Z,30.3085,-88.1395,20.24,1111122 
DISL,ioos:station:DISL:CATA:1,2011-05-05T04:00:00Z,30.3085,-88.1395,20.14,1111122 
DISL,ioos:station:DISL:CATA:1,2011-05-05T04:30:00Z,30.3085,-88.1395,20.07,1111122 
DISL,ioos:station:DISL:CATA:1,2011-05-05T05:00:00Z,30.3085,-88.1395,19.9,1111122 
DISL,ioos:station:DISL:CATA:1,2011-05-05T05:30:00Z,30.3085,-88.1395,19.73,1111122 
DISL,ioos:station:DISL:CATA:1,2011-05-05T06:00:00Z,30.3085,-88.1395,19.28,1111122 
DISL,ioos:station:DISL:CATA:1,2011-05-05T06:30:00Z,30.3085,-88.1395,19.18,1111122 
DISL,ioos:station:DISL:CATA:1,2011-05-05T07:00:00Z,30.3085,-88.1395,18.87,1111122 
DISL,ioos:station:DISL:CATA:1,2011-05-05T07:30:00Z,30.3085,-88.1395,18.59,1111122 
DISL,ioos:station:DISL:CATA:1,2011-05-05T08:00:00Z,30.3085,-88.1395,18.15,1111122 
DISL,ioos:station:DISL:CATA:1,2011-05-05T08:30:00Z,30.3085,-88.1395,17.75,1111122 
DISL,ioos:station:DISL:CATA:1,2011-05-05T09:00:00Z,30.3085,-88.1395,17.4,1111122 
DISL,ioos:station:DISL:CATA:1,2011-05-05T09:30:00Z,30.3085,-88.1395,17.2,1111122 
DISL,ioos:station:DISL:CATA:1,2011-05-05T10:00:00Z,30.3085,-88.1395,17.0,1111122 
DISL,ioos:station:DISL:CATA:1,2011-05-05T10:30:00Z,30.3085,-88.1395,16.76,1111122 
DISL,ioos:station:DISL:CATA:1,2011-05-05T11:00:00Z,30.3085,-88.1395,16.59,1111122 
DISL,ioos:station:DISL:CATA:1,2011-05-05T11:30:00Z,30.3085,-88.1395,16.04,1111122 
DISL,ioos:station:DISL:CATA:1,2011-05-05T12:00:00Z,30.3085,-88.1395,15.42,1111122 
DISL,ioos:station:DISL:CATA:1,2011-05-05T12:30:00Z,30.3085,-88.1395,15.04,1111122 
DISL,ioos:station:DISL:CATA:1,2011-05-05T13:00:00Z,30.3085,-88.1395,15.22,1111122 
DISL,ioos:station:DISL:CATA:1,2011-05-05T13:30:00Z,30.3085,-88.1395,15.45,1111122 
DISL,ioos:station:DISL:CATA:1,2011-05-05T14:00:00Z,30.3085,-88.1395,15.21,1111122 
DISL,ioos:station:DISL:CATA:1,2011-05-05T14:30:00Z,30.3085,-88.1395,15.75,1111122 
DISL,ioos:station:DISL:CATA:1,2011-05-05T15:00:00Z,30.3085,-88.1395,16.13,1111122 
DISL,ioos:station:DISL:CATA:1,2011-05-05T15:30:00Z,30.3085,-88.1395,16.43,1111122 
DISL,ioos:station:DISL:CATA:1,2011-05-05T16:00:00Z,30.3085,-88.1395,16.88,1111122 
DISL,ioos:station:DISL:CATA:1,2011-05-05T16:30:00Z,30.3085,-88.1395,17.34,1111122 
DISL,ioos:station:DISL:CATA:1,2011-05-05T17:00:00Z,30.3085,-88.1395,17.37,1111122 
DISL,ioos:station:DISL:CATA:1,2011-05-05T17:30:00Z,30.3085,-88.1395,17.72,1111122 
DISL,ioos:station:DISL:CATA:1,2011-05-05T18:00:00Z,30.3085,-88.1395,18.95,1111122 
DISL,ioos:station:DISL:CATA:1,2011-05-05T18:30:00Z,30.3085,-88.1395,19.35,1111122 
DISL,ioos:station:DISL:CATA:1,2011-05-05T19:00:00Z,30.3085,-88.1395,19.96,1111122 
DISL,ioos:station:DISL:CATA:1,2011-05-05T19:30:00Z,30.3085,-88.1395,19.1,1111122 
DISL,ioos:station:DISL:CATA:1,2011-05-05T20:00:00Z,30.3085,-88.1395,19.31,1111122 
DISL,ioos:station:DISL:CATA:1,2011-05-05T20:30:00Z,30.3085,-88.1395,19.58,1111122 
DISL,ioos:station:DISL:CATA:1,2011-05-05T21:00:00Z,30.3085,-88.1395,19.48,1111122 
DISL,ioos:station:DISL:CATA:1,2011-05-05T21:30:00Z,30.3085,-88.1395,20.04,1111122 
DISL,ioos:station:DISL:CATA:1,2011-05-05T22:00:00Z,30.3085,-88.1395,20.22,1111122 
DISL,ioos:station:DISL:CATA:1,2011-05-05T22:30:00Z,30.3085,-88.1395,20.84,1111122 
DISL,ioos:station:DISL:CATA:1,2011-05-05T23:00:00Z,30.3085,-88.1395,20.8,1111122 
DISL,ioos:station:DISL:CATA:1,2011-05-05T23:30:00Z,30.3085,-88.1395,19.91,1111122 
DISL,ioos:station:DISL:CATA:1,2011-05-06T00:00:00Z,30.3085,-88.1395,20.32,1111122 
DISL,ioos:station:DISL:CATA:1,2011-05-06T00:30:00Z,30.3085,-88.1395,19.72,1111122 
DISL,ioos:station:DISL:CATA:1,2011-05-06T01:00:00Z,30.3085,-88.1395,19.79,1111122 
DISL,ioos:station:DISL:CATA:1,2011-05-06T01:30:00Z,30.3085,-88.1395,19.86,1111122 
DISL,ioos:station:DISL:CATA:1,2011-05-06T02:00:00Z,30.3085,-88.1395,19.9,1111122 
DISL,ioos:station:DISL:CATA:1,2011-05-06T02:30:00Z,30.3085,-88.1395,19.9,1111122 
DISL,ioos:station:DISL:CATA:1,2011-05-06T03:00:00Z,30.3085,-88.1395,19.83,1111122 
DISL,ioos:station:DISL:CATA:1,2011-05-06T03:30:00Z,30.3085,-88.1395,19.9,1111122 
DISL,ioos:station:DISL:CATA:1,2011-05-06T04:00:00Z,30.3085,-88.1395,19.9,1111122 
DISL,ioos:station:DISL:CATA:1,2011-05-06T04:30:00Z,30.3085,-88.1395,19.93,1111122 
DISL,ioos:station:DISL:CATA:1,2011-05-06T05:00:00Z,30.3085,-88.1395,19.86,1111122 
DISL,ioos:station:DISL:CATA:1,2011-05-06T05:30:00Z,30.3085,-88.1395,17.08,1111122 
DISL,ioos:station:DISL:CATA:1,2011-05-06T06:00:00Z,30.3085,-88.1395,16.27,1111122 
DISL,ioos:station:DISL:CATA:1,2011-05-06T06:30:00Z,30.3085,-88.1395,16.28,1111122 
DISL,ioos:station:DISL:CATA:1,2011-05-06T07:00:00Z,30.3085,-88.1395,16.25,1111122 
DISL,ioos:station:DISL:CATA:1,2011-05-06T07:30:00Z,30.3085,-88.1395,16.21,1111122 
DISL,ioos:station:DISL:CATA:1,2011-05-06T08:00:00Z,30.3085,-88.1395,16.42,1111122 
DISL,ioos:station:DISL:CATA:1,2011-05-06T08:30:00Z,30.3085,-88.1395,16.28,1111122 
DISL,ioos:station:DISL:CATA:1,2011-05-06T09:00:00Z,30.3085,-88.1395,16.25,1111122 
DISL,ioos:station:DISL:CATA:1,2011-05-06T09:30:00Z,30.3085,-88.1395,16.35,1111122 
DISL,ioos:station:DISL:CATA:1,2011-05-06T10:00:00Z,30.3085,-88.1395,16.28,1111122 
DISL,ioos:station:DISL:CATA:1,2011-05-06T10:30:00Z,30.3085,-88.1395,16.01,1111122 
DISL,ioos:station:DISL:CATA:1,2011-05-06T11:00:00Z,30.3085,-88.1395,16.01,1111122 
DISL,ioos:station:DISL:CATA:1,2011-05-06T11:30:00Z,30.3085,-88.1395,16.35,1111122 
DISL,ioos:station:DISL:CATA:1,2011-05-06T12:00:00Z,30.3085,-88.1395,16.83,1111122 
DISL,ioos:station:DISL:CATA:1,2011-05-06T12:30:00Z,30.3085,-88.1395,17.27,1111122 
DISL,ioos:station:DISL:CATA:1,2011-05-06T13:30:00Z,30.3085,-88.1395,17.98,1111122 
DISL,ioos:station:DISL:CATA:1,2011-05-06T14:00:00Z,30.3085,-88.1395,18.72,1111122 
DISL,ioos:station:DISL:CATA:1,2011-05-06T14:30:00Z,30.3085,-88.1395,19.23,1111122 
DISL,ioos:station:DISL:CATA:1,2011-05-06T15:00:00Z,30.3085,-88.1395,19.29,1111122 
DISL,ioos:station:DISL:CATA:1,2011-05-06T15:30:00Z,30.3085,-88.1395,20.31,1111122 
DISL,ioos:station:DISL:CATA:1,2011-05-06T16:00:00Z,30.3085,-88.1395,20.37,1111122 
DISL,ioos:station:DISL:CATA:1,2011-05-06T16:30:00Z,30.3085,-88.1395,20.88,1111122 
DISL,ioos:station:DISL:CATA:1,2011-05-06T17:00:00Z,30.3085,-88.1395,21.74,1111122 
DISL,ioos:station:DISL:CATA:1,2011-05-06T17:30:00Z,30.3085,-88.1395,21.84,1111122 
DISL,ioos:station:DISL:CATA:1,2011-05-06T18:00:00Z,30.3085,-88.1395,22.08,1111122 
DISL,ioos:station:DISL:CATA:1,2011-05-06T18:30:00Z,30.3085,-88.1395,22.7,1111122 
DISL,ioos:station:DISL:CATA:1,2011-05-06T19:00:00Z,30.3085,-88.1395,23.25,1111122 
DISL,ioos:station:DISL:CATA:1,2011-05-06T19:30:00Z,30.3085,-88.1395,23.41,1111122 
DISL,ioos:station:DISL:CATA:1,2011-05-06T20:00:00Z,30.3085,-88.1395,22.86,1111122 
DISL,ioos:station:DISL:CATA:1,2011-05-06T20:30:00Z,30.3085,-88.1395,22.36,1111122 
DISL,ioos:station:DISL:CATA:1,2011-05-06T21:00:00Z,30.3085,-88.1395,22.15,1111122 
DISL,ioos:station:DISL:CATA:1,2011-05-06T21:30:00Z,30.3085,-88.1395,22.32,1111122 
DISL,ioos:station:DISL:CATA:1,2011-05-06T22:00:00Z,30.3085,-88.1395,22.36,1111122 
DISL,ioos:station:DISL:CATA:1,2011-05-06T22:30:00Z,30.3085,-88.1395,22.36,1111122 
DISL,ioos:station:DISL:CATA:1,2011-05-06T23:00:00Z,30.3085,-88.1395,22.5,1111122 
DISL,ioos:station:DISL:CATA:1,2011-05-06T23:30:00Z,30.3085,-88.1395,22.5,1111122 
DISL,ioos:station:DISL:CATA:1,2011-05-07T00:00:00Z,30.3085,-88.1395,22.58,1111122 